Skip Page Navigation
NASA JPL Caltech
NASA Logo - Jet Propulsion Laboratory + View the NASA Portal
+ Center for Near-Earth Object Studies
JPL Home Earth Solar System Stars & Galaxies Technology
JPL Solar System Dynamics
BODIES ORBITS EPHEMERIDES TOOLS PHYSICAL DATA DISCOVERY FAQ SITE MAP
IMPORTANT: The SSD Announcement email list is now available. Major changes are coming in the near future, including possible hostname and/or URL changes. To be notified of such changes, subscribe to this email list.

Please visit this page for more details.


JPL Small-Body Database Browser
Search: [ help ]  
15610 (2000 GY126)
Classification: Main-belt Asteroid          SPK-ID: 2015610
Ephemeris | Orbit Diagram | Orbital Elements | Mission Design | Physical Parameters | Discovery Circumstances | Close-Approach Data ]

[ show orbit diagram ]
Orbital Elements at Epoch 2459000.5 (2020-May-31.0) TDB
Reference: JPL 31 (heliocentric ecliptic J2000)
 Element Value Uncertainty (1-sigma)   Units 
e .08918552296315109 3.3793e-08  
a 2.936060625379752 1.5799e-08 au
q 2.674206523053742 1.0375e-07 au
i 10.98336788916073 3.8245e-06 deg
node 171.9340479090267 1.9789e-05 deg
peri 65.88353018092673 2.9438e-05 deg
M 7.491731493388608 2.1956e-05 deg
tp 2458962.259315440415
(2020-Apr-22.75931544)
0.00011204 TDB
period 1837.578729776894
5.03
1.4832e-05
4.061e-08
d
yr
n .1959099733613637 1.5813e-09 deg/d
Q 3.197914727705761 1.7208e-08 au
  Orbit Determination Parameters
   # obs. used (total)      1873  
   data-arc span      10351 days (28.34 yr)  
   first obs. used      1991-10-01  
   last obs. used      2020-02-02  
   planetary ephem.      DE431  
   SB-pert. ephem.      SB431-N16  
   condition code      0  
   norm. resid. RMS      .53915  
   source      ORB  
   producer      Otto Matic  
   solution date      2020-Feb-22 21:22:15  

Additional Information
 Earth MOID = 1.68683 au 
 Jupiter MOID = 1.83946 au 
 T_jup = 3.241 
[ show covariance matrix ]

Ephemeris | Orbit Diagram | Orbital Elements | Mission Design | Physical Parameters | Discovery Circumstances | Close-Approach Data ]

Physical Parameter Table
Parameter Symbol Value Units Sigma Reference Notes
absolute magnitude H 13.3   n/a MPO473977  
diameter diameter 5.836 km 0.190 urn:nasa:pds:neowise_diameters_albedos::2.0[mainbelt] (http://adsabs.harvard.edu/abs/2011ApJ...741...68M)  
geometric albedo albedo 0.298   0.034 urn:nasa:pds:neowise_diameters_albedos::2.0[mainbelt] (http://adsabs.harvard.edu/abs/2011ApJ...741...68M)  

15610 (2000 GY126)          Discovered 2000-Apr-07 by LINEAR at Socorro
Reference: 20000621/Numbers.arcLast Updated: 2004-04-19

[ show close-approach data ]
Alternate Designations
 2000 GY126 = 1996 TW63 = 1999 CB77 
Ephemeris | Orbit Diagram | Orbital Elements | Mission Design | Physical Parameters | Discovery Circumstances | Close-Approach Data ]
ABOUT SSD CREDITS/AWARDS PRIVACY/COPYRIGHT GLOSSARY LINKS
FirstGov 2020-Apr-03 11:17 UT
(server date/time)  
NASA Home Page
Site Manager:   Ryan S. Park
Webmaster  Alan B. Chamberlin